Weather in Tanga

Russia / Zabaykalsky Krai     50°59′16″N   111°33′15″E
temp.,
°C
wind,
m/s
gust,
m/s
humid.,
%
clouds,
%
prec.,
mm/h
press.,
hPa
HPBL,
m
2 december, thu
thu200:00−6wnw9208391 0.8 10121800
03:00−8nw9186825 1.1 10151575
06:00−10wnw81771100 0.0 10171331
09:00−11wnw8166879 0.0 10191197
12:00−9wnw8156955 0.0 10191316
15:00−8wnw6136383 0.0 10191258
18:00−10wnw6137355 0.0 1020577
21:00−9w61479100 0.0 1020814
3 december, fri
fri300:00−7w71577100 0.0 1019857
03:00−7w71579100 0.0 1018853
06:00−6w71579100 0.1 1018871
09:00−6w71581100 0.1 1019756
12:00−4w71576100 0.0 1019830
15:00−2w71470100 0.0 1018872
18:00−3w6156987 0.0 1019714
21:00−4wsw5126225 0.0 1020318
4 december, sat
sat400:00−5w4958100 0.0 1020211
03:00−8wsw357192 0.0 102265
06:00−11wsw33812 0.0 102239
09:00−12wsw33855 0.0 102335
12:00−6wsw23585 0.0 1019131
15:00−1wsw13525 0.0 1013138
18:00−9wnw228417 0.0 101610
21:00−10w2287100 0.0 101627
5 december, sun
sun500:00−6w3764100 0.0 1016178
03:00−6w41169100 0.0 1018292
06:00−8w49803 0.0 1022193
09:00−9wsw37835 0.0 1025160
12:00−5w6136911 0.0 1024860
15:00−4wnw8186332 0.0 10241686
18:00−6wnw7157192 0.0 10261146
21:00−9w715679 0.1 1029904
6 december, mon
mon600:00−9w615665 0.0 1030717
03:00−9w613696 0.0 1030525
06:00−11wsw38905 0.0 1029193
09:00−12sw37888 0.0 1029127
12:00−8sw37682 0.0 1028250
15:00−2wsw512500 0.0 1023732
18:00−9wsw22785 0.0 102625
21:00−11wsw22855 0.0 102836